Location: Casteau
(50.5142°N, 4.0161°E)
Time: 05:39:13
(UTC+00:00)

NOSS 3-4 (A) - Pass Details

Date: 18 September 2020
Orbit: 886 x 1326 km, 63.4° (Epoch: 19 October)

Event Time Altitude Azimuth Distance (km) Brightness Sun altitude
Exits shadow 22:41:30 44° 350° (N) 1,307 4.4 -36.7°
Drops below altitude 10° 22:46:59 10° 41° (NE) 2,828 6.2 -37.0°
Sets 22:49:52 0° 48° (NE) 3,852 6.9 -37.1°
